STARLINK-36411, 67608

Orbit data source: Space-Track

STARLINK-36411, 67608 is a payload satellite owned by SpaceX/Seattle (US) in SSO that was launched on Thu, 29 Jan 2026 UTC via an FALCON 9 launch vehicle from the Air Force Western Test Range (AFWTR). Payload-class satellites include a variety of spacecraft equipped with specific instruments for various scientific and technological missions. These include communications satellites like Starlink; space stations such as the ISS; scientific satellites like the Hubble; Earth observation satellites from companies like Planet Labs, Umbra, and HawkEye 360; GPS; miniature CubeSats for education and research; and military/defense satellites.

Loading next visibility...
Identifier
67608, 2026-018V
Orbit
SSO
Country
Flag of USUS
Related business
Manufacturer
SpaceX/Seattle
Mission
Operational Commercial Communications
Bus & Motor
STARLINK V2MO, Unknown motor
Mass
575 kg wet, ~530 kg dry
Launch date (UTC)
2026-01-29 (5 months ago)
Launch vehicle
FALCON 9
Launch site
Air Force Western Test Range (AFWTR)
Object type
Payload
Rocket body
Debris
Shape & HBR
Box + 2 Pan, 17.7 m
Radar Cross Section
36.964 m², Large (>1 m²)

Expand to show TLE details & history
Last TLE update: 23 hours ago

TLE from 23 hours ago
0 STARLINK-36411
1 67608U 26018V   26170.88935308  .00009461  00000-0  29499-3 0  9990
2 67608  97.2835 235.6107 0000855  99.6989 260.4351 15.33448426 22998
Epoch: 2026-06-19T21:20Z
TLE epoch observation values (Epoch: 2026-06-19T21:20:40.106Z)
Latitude
0.00006°
Longitude
7.33173°
Altitude
468.742 km
Speed
7.632 km/s
True Right ascension
15h 42m 26s
True Declination
0° 00' 00"
Sunlit
Object was in full shadow at epoch
Visualization orbit readout
Latitude
Unknown
Longitude
Unknown
Altitude
Unknown
Speed
Unknown
Apparent Right ascension
Unknown
Apparent Declination
Unknown
Sunlit
N/A
Visualization observer readout
Local Sidereal Time
07:14:16
Azimuth
Unknown
Elevation
Unknown
Doppler factor
Unknown
Orbital elements
Apogee altitude
463.061 km
Perigee altitude
461.891 km
Semi-major axis
6,840.613 km
Eccentricity
0.00009
Inclination
97.2835°
RAAN
235.6107°
Arg. of periapsis
99.6989°
True anomaly
260.42544°
Mean anomaly
260.4351°
Eccentric anomaly
260.43027°
Mean motion
3.83619 °/min
Orbital period
93.84 mins
BSTAR
0.00029499
Loading maneuver chart data...
Computing Atmospheric mass density...
Loading historical data...
Loading historical data...
Loading historical data...
Loading historical data...
Loading historical data...
Loading historical data...
Loading historical data...

Documentation

Showing up to 5 results
|